Location: Bottens
(46.6171°N, 6.6605°E)
Time: 20:04:04
(UTC+00:00)

Cosmos 2369 Rocket - Pass Details

Date: 20 June 2021
Orbit: 827 x 854 km, 71.0° (Epoch: 31 July)

Event Time Altitude Azimuth Distance (km) Brightness Sun altitude
Rises 00:27:52 0° 331° (NNW) 3,433 6.1 -18.9°
Reaches altitude 10° 00:30:21 10° 329° (NNW) 2,493 5.3 -18.8°
Maximum altitude 00:36:01 67° 248° (WSW) 922 2.2 -18.6°
Enters shadow 00:38:51 30° 174° (S) 1,476 2.9 -18.5°
